Overview Statistics Trail Chart Weather Telemetry Raw packets
 

This is the latest recevied weather packets stored in our database for station/object KO4LCK. If no packets are shown the sender has not sent any weather packets the latest 10 day(s).

<< 104 105 106 107 108 109 110 >>
Time Temp. Humidity Pressure Rain* Wind** Luminosity Snow
1787839502 27.22° C 72% 1017 hPa 0 mm - 413 W/m² -
1787839201 26.67° C 74% 1016.9 hPa 0 mm - 393 W/m² -
1787838900 26.67° C 74% 1017 hPa 0 mm - 370 W/m² -
1787838600 26.11° C 75% 1017.1 hPa 0 mm - 352 W/m² -
1787838300 26.11° C 76% 1017.1 hPa 0 mm - 317 W/m² -
1787837998 26.67° C 76% 1017 hPa 0 mm - 318 W/m² -
1787837698 26.67° C 75% 1017.2 hPa 0 mm - 299 W/m² -
1787837393 26.11° C 77% 1017 hPa 0 mm - 293 W/m² -
1787837088 25.56° C 78% 1017.3 hPa 0 mm - 293 W/m² -
1787836786 25.56° C 79% 1017 hPa 0 mm - 198 W/m² -
1787836482 25.56° C 79% 1017.2 hPa 0 mm - 277 W/m² -
1787836177 25° C 81% 1017.3 hPa 0 mm - 270 W/m² -
1787835873 24.44° C 82% 1017.4 hPa 0 mm - 163 W/m² -
1787835572 24.44° C 84% 1017.4 hPa 0 mm - 154 W/m² -
1787835268 23.89° C 86% 1017.3 hPa 0 mm - 147 W/m² -
1787834963 23.33° C 88% 1017.4 hPa 0 mm - 125 W/m² -
1787834661 22.78° C 89% 1017.3 hPa 0 mm - 103 W/m² -
1787834357 22.78° C 90% 1017.4 hPa 0 mm - 97 W/m² -
1787834053 22.78° C 90% 1017.2 hPa 0 mm - 71 W/m² -
1787833748 22.78° C 90% 1017.2 hPa 0 mm - 62 W/m² -
1787833444 22.22° C 91% 1017.1 hPa 0 mm - 51 W/m² -
1787833139 22.22° C 91% 1017 hPa 0 mm - 44 W/m² -
1787832828 22.22° C 91% 1017.1 hPa 0 mm - 38 W/m² -
1787832524 22.22° C 91% 1016.9 hPa 0 mm - 35 W/m² -
1787832223 22.22° C 91% 1016.9 hPa 0 mm - 30 W/m² -

* Rain latest hour (hover to see other rain measurements)
** Current wind speed in m/s (hover to see current wind gust speed)